When you browse on this site, cookies collect data to enhance your experience and personalize the content and advertising you see.
Visit our Privacy Policy to learn more. By continuing to use the site, you agree to this use of cookies and data.
  • En España
  • Lista de países
  • Para 7 días
  • Temperatura del agua
  • El tiempo en el mapa
  • Informadores
  • user-avatar
    Iniciar sesión

    Tiempo cada hora Bukavu

    Hoy, 21 Octubre, Lunes

    Tiempo Temperatura Precipitaciones Viento Presión Humedad
    00:00 +22°C° 1.8 mm 1 mps 687 mmHg 99%
    01:00 +21°C° 1.8 mm 1 mps 687 mmHg 99%
    02:00 +19°C° 0 mm 0 mps 687 mmHg 99%
    03:00 +19°C° 1 mm 0 mps 687 mmHg 99%
    04:00 +19°C° 1 mm 0 mps 687 mmHg 99%
    05:00 +19°C° 1 mm 0 mps 688 mmHg 99%
    06:00 +19°C° 0.3 mm 0 mps 688 mmHg 98%
    07:00 +20°C° 0.3 mm 0 mps 689 mmHg 96%
    08:00 +21°C° 0.3 mm 0 mps 689 mmHg 95%
    09:00 +23°C° 0.1 mm 0 mps 689 mmHg 84%
    10:00 +27°C° 0.1 mm 1 mps 689 mmHg 74%
    11:00 +29°C° 0.1 mm 1 mps 689 mmHg 63%
    12:00 +28°C° 1.7 mm 1 mps 688 mmHg 73%
    13:00 +27°C° 1.7 mm 2 mps 687 mmHg 84%
    14:00 +26°C° 1.7 mm 2 mps 686 mmHg 94%
    15:00 +26°C° 0.6 mm 1 mps 686 mmHg 92%
    16:00 +26°C° 0.6 mm 1 mps 686 mmHg 90%
    17:00 +25°C° 0.6 mm 1 mps 686 mmHg 88%
    18:00 +24°C° 0.7 mm 1 mps 686 mmHg 91%
    19:00 +23°C° 0.7 mm 1 mps 687 mmHg 93%
    20:00 +22°C° 0.7 mm 1 mps 688 mmHg 96%
    21:00 +22°C° 1 mm 1 mps 688 mmHg 97%
    22:00 +22°C° 1 mm 1 mps 688 mmHg 98%
    23:00 +21°C° 1 mm 1 mps 688 mmHg 99%

    Mañana, 22 Octubre, Martes

    Tiempo Temperatura Precipitaciones Viento Presión Humedad
    00:00 +19°C° 0.1 mm 0 mps 687 mmHg 99%
    01:00 +19°C° 0.1 mm 0 mps 687 mmHg 99%
    02:00 +19°C° 0.1 mm 0 mps 687 mmHg 99%
    03:00 +19°C° 0 mm 0 mps 687 mmHg 99%
    04:00 +19°C° 0 mm 0 mps 687 mmHg 99%
    05:00 +19°C° 0 mm 0 mps 687 mmHg 99%
    06:00 +19°C° 0.1 mm 0 mps 688 mmHg 99%
    07:00 +20°C° 0.1 mm 0 mps 689 mmHg 98%
    08:00 +20°C° 0.1 mm 0 mps 689 mmHg 97%
    09:00 +21°C° 0.1 mm 0 mps 689 mmHg 95%
    10:00 +21°C° 0.1 mm 0 mps 689 mmHg 93%
    11:00 +22°C° 0.1 mm 0 mps 689 mmHg 91%
    12:00 +22°C° 0.5 mm 0 mps 688 mmHg 88%
    13:00 +23°C° 0.5 mm 0 mps 687 mmHg 85%
    14:00 +24°C° 0.5 mm 0 mps 687 mmHg 82%
    15:00 +24°C° 0.2 mm 0 mps 687 mmHg 83%
    16:00 +25°C° 0.2 mm 1 mps 686 mmHg 83%
    17:00 +25°C° 0.2 mm 1 mps 686 mmHg 83%
    18:00 +22°C° 0 mm 0 mps 686 mmHg 88%
    19:00 +21°C° 0 mm 0 mps 687 mmHg 93%
    20:00 +20°C° 0 mm 0 mps 687 mmHg 98%
    21:00 +20°C° 0 mm 0 mps 687 mmHg 98%
    22:00 +19°C° 0 mm 0 mps 687 mmHg 99%
    23:00 +19°C° 0 mm 0 mps 687 mmHg 99%

    Pasado mañana, 23 Octubre, Miércoles

    Tiempo Temperatura Precipitaciones Viento Presión Humedad
    00:00 +19°C° 0.1 mm 0 mps 687 mmHg 99%
    01:00 +19°C° 0.1 mm 0 mps 687 mmHg 99%
    02:00 +18°C° 0.1 mm 0 mps 686 mmHg 99%
    03:00 +18°C° 0.5 mm 0 mps 686 mmHg 99%
    04:00 +18°C° 0.5 mm 0 mps 686 mmHg 99%
    05:00 +18°C° 0.5 mm 0 mps 686 mmHg 99%
    06:00 +19°C° 0.1 mm 0 mps 687 mmHg 96%
    07:00 +20°C° 0.1 mm 0 mps 688 mmHg 94%
    08:00 +21°C° 0.1 mm 0 mps 689 mmHg 92%
    09:00 +22°C° 0.6 mm 0 mps 689 mmHg 88%
    10:00 +24°C° 0.6 mm 0 mps 689 mmHg 85%
    11:00 +27°C° 0.6 mm 1 mps 688 mmHg 82%
    12:00 +27°C° 0.6 mm 1 mps 687 mmHg 78%
    13:00 +28°C° 0.6 mm 1 mps 687 mmHg 74%
    14:00 +28°C° 0.6 mm 1 mps 686 mmHg 71%
    15:00 +28°C° 0.1 mm 1 mps 686 mmHg 73%
    16:00 +28°C° 0.1 mm 1 mps 685 mmHg 74%
    17:00 +25°C° 0.1 mm 0 mps 685 mmHg 76%
    18:00 +24°C° 2 mm 0 mps 686 mmHg 84%
    19:00 +22°C° 2 mm 0 mps 686 mmHg 91%
    20:00 +20°C° 2 mm 0 mps 687 mmHg 99%
    21:00 +20°C° 0.7 mm 0 mps 687 mmHg 98%
    22:00 +20°C° 0.7 mm 0 mps 687 mmHg 98%
    23:00 +19°C° 0.7 mm 0 mps 687 mmHg 98%

    24 Octubre, Jueves

    Tiempo Temperatura Precipitaciones Viento Presión Humedad
    00:00 +19°C° 0.3 mm 0 mps 687 mmHg 98%
    01:00 +19°C° 0.3 mm 0 mps 686 mmHg 98%
    02:00 +19°C° 0.3 mm 0 mps 686 mmHg 99%
    03:00 +19°C° 0 mm 0 mps 686 mmHg 99%
    04:00 +19°C° 0 mm 0 mps 687 mmHg 99%
    05:00 +19°C° 0 mm 0 mps 687 mmHg 99%
    06:00 +19°C° 0.1 mm 0 mps 688 mmHg 98%
    07:00 +20°C° 0.1 mm 0 mps 688 mmHg 98%
    08:00 +22°C° 0.1 mm 1 mps 689 mmHg 98%
    09:00 +22°C° 0.1 mm 1 mps 689 mmHg 96%
    10:00 +23°C° 0.1 mm 1 mps 688 mmHg 94%
    11:00 +23°C° 0.1 mm 1 mps 688 mmHg 91%
    12:00 +25°C° 0 mm 1 mps 687 mmHg 81%
    13:00 +27°C° 0 mm 1 mps 687 mmHg 71%
    14:00 +27°C° 0 mm 0 mps 686 mmHg 60%
    15:00 +27°C° 0 mm 0 mps 686 mmHg 64%
    16:00 +26°C° 0 mm 0 mps 686 mmHg 68%
    17:00 +25°C° 0 mm 0 mps 686 mmHg 72%
    18:00 +24°C° 0.2 mm 0 mps 686 mmHg 77%
    19:00 +23°C° 0.2 mm 0 mps 686 mmHg 82%
    20:00 +21°C° 0.2 mm 0 mps 687 mmHg 88%
    21:00 +21°C° 0.3 mm 0 mps 687 mmHg 90%
    22:00 +20°C° 0.3 mm 0 mps 687 mmHg 92%
    23:00 +20°C° 0.3 mm 0 mps 687 mmHg 94%

    25 Octubre, Viernes

    Tiempo Temperatura Precipitaciones Viento Presión Humedad
    00:00 +20°C° 0.2 mm 0 mps 687 mmHg 95%
    01:00 +19°C° 0.2 mm 0 mps 686 mmHg 96%
    02:00 +19°C° 0.2 mm 0 mps 686 mmHg 98%
    03:00 +19°C° 0 mm 0 mps 686 mmHg 98%
    04:00 +19°C° 0 mm 0 mps 687 mmHg 98%
    05:00 +19°C° 0 mm 0 mps 687 mmHg 98%
    06:00 +20°C° 0.1 mm 0 mps 688 mmHg 96%
    07:00 +21°C° 0.1 mm 0 mps 688 mmHg 94%
    08:00 +22°C° 0.1 mm 0 mps 689 mmHg 92%
    09:00 +23°C° 0.7 mm 0 mps 689 mmHg 87%
    10:00 +24°C° 0.7 mm 0 mps 689 mmHg 83%
    11:00 +26°C° 0.7 mm 0 mps 688 mmHg 79%
    12:00 +26°C° 1.3 mm 0 mps 687 mmHg 82%
    13:00 +28°C° 1.3 mm 1 mps 686 mmHg 85%
    14:00 +28°C° 1.3 mm 1 mps 685 mmHg 87%
    15:00 +25°C° 0.9 mm 0 mps 685 mmHg 89%
    16:00 +25°C° 0.9 mm 0 mps 685 mmHg 91%
    17:00 +24°C° 0.9 mm 0 mps 685 mmHg 93%
    18:00 +23°C° 0.4 mm 0 mps 686 mmHg 94%
    19:00 +21°C° 0.4 mm 0 mps 686 mmHg 95%
    20:00 +20°C° 0.4 mm 0 mps 686 mmHg 95%
    21:00 +20°C° 0.1 mm 0 mps 686 mmHg 96%
    22:00 +20°C° 0.1 mm 0 mps 687 mmHg 97%
    23:00 +19°C° 0.1 mm 0 mps 687 mmHg 97%

    26 Octubre, Sábado

    Tiempo Temperatura Precipitaciones Viento Presión Humedad
    00:00 +19°C° 0.2 mm 0 mps 687 mmHg 97%
    01:00 +19°C° 0.2 mm 0 mps 686 mmHg 98%
    02:00 +19°C° 0.2 mm 0 mps 686 mmHg 98%
    03:00 +19°C° 1.1 mm 0 mps 686 mmHg 98%
    04:00 +19°C° 1.1 mm 0 mps 686 mmHg 99%
    05:00 +18°C° 1.1 mm 0 mps 686 mmHg 99%
    06:00 +19°C° 0.3 mm 0 mps 687 mmHg 97%
    07:00 +20°C° 0.3 mm 0 mps 688 mmHg 96%
    08:00 +21°C° 0.3 mm 0 mps 689 mmHg 94%
    09:00 +23°C° 1.7 mm 0 mps 688 mmHg 94%
    10:00 +26°C° 1.7 mm 1 mps 688 mmHg 93%
    11:00 +27°C° 1.7 mm 1 mps 688 mmHg 93%
    12:00 +27°C° 1.7 mm 1 mps 687 mmHg 90%
    13:00 +25°C° 1.7 mm 0 mps 686 mmHg 87%
    14:00 +26°C° 1.7 mm 0 mps 686 mmHg 84%
    15:00 +25°C° 0.9 mm 0 mps 685 mmHg 87%
    16:00 +24°C° 0.9 mm 0 mps 685 mmHg 91%
    17:00 +23°C° 0.9 mm 0 mps 685 mmHg 95%
    18:00 +22°C° 0.3 mm 0 mps 685 mmHg 96%
    19:00 +21°C° 0.3 mm 0 mps 686 mmHg 96%
    20:00 +21°C° 0.3 mm 0 mps 686 mmHg 97%
    21:00 +20°C° 0.6 mm 0 mps 686 mmHg 97%
    22:00 +20°C° 0.6 mm 0 mps 687 mmHg 98%
    23:00 +20°C° 0.6 mm 0 mps 687 mmHg 98%

    27 Octubre, Domingo

    Tiempo Temperatura Precipitaciones Viento Presión Humedad
    00:00 +20°C° 1.5 mm 0 mps 686 mmHg 98%
    01:00 +19°C° 1.5 mm 0 mps 686 mmHg 98%
    02:00 +19°C° 1.5 mm 0 mps 686 mmHg 99%
    03:00 +19°C° 0.6 mm 0 mps 686 mmHg 99%
    04:00 +19°C° 0.6 mm 0 mps 686 mmHg 99%
    05:00 +19°C° 0.6 mm 0 mps 686 mmHg 99%
    06:00 +19°C° 0.6 mm 0 mps 687 mmHg 99%
    07:00 +19°C° 0.6 mm 0 mps 688 mmHg 99%
    08:00 +20°C° 0.6 mm 0 mps 688 mmHg 99%
    09:00 +20°C° 0.3 mm 0 mps 688 mmHg 97%
    10:00 +23°C° 0.3 mm 1 mps 688 mmHg 94%
    11:00 +24°C° 0.3 mm 1 mps 688 mmHg 92%
    12:00 +25°C° 1 mm 1 mps 687 mmHg 88%
    13:00 +26°C° 1 mm 1 mps 686 mmHg 84%
    14:00 +27°C° 1 mm 1 mps 686 mmHg 81%
    15:00 +27°C° 1.2 mm 1 mps 686 mmHg 86%
    16:00 +26°C° 1.2 mm 1 mps 686 mmHg 91%
    17:00 +23°C° 1.2 mm 0 mps 686 mmHg 96%
    18:00 +24°C° 2.3 mm 1 mps 686 mmHg 97%
    19:00 +23°C° 2.3 mm 1 mps 686 mmHg 98%
    20:00 +22°C° 2.3 mm 1 mps 687 mmHg 98%
    21:00 +19°C° 2.1 mm 0 mps 687 mmHg 98%
    22:00 +19°C° 2.1 mm 0 mps 687 mmHg 99%
    23:00 +19°C° 2.1 mm 0 mps 687 mmHg 99%
    Mostrar más